EW2804 Weather Reports


Display with metric or nautical units.
time (UTC)temp
F
wind
direction
speed
MPH
gust
MPH
rain 1hr
in
rain 24hr
in
rain mn
in
humidity
%
barometer
mb
20220118131629 50 186 2.0 8.0 0.00 0.00 0.00 62 1013.1
20220118130632 50 171 2.0 10.0 0.00 0.00 0.00 61 1013.1
20220118125617 50 182 2.0 10.0 0.00 0.00 0.00 59 1013.1
20220118124542 49 186 1.0 6.0 0.00 0.00 0.00 58 1013.2
20220118123511 49 171 2.0 9.0 0.00 0.00 0.00 57 1013.0
20220118122458 49 165 2.0 9.0 0.00 0.00 0.00 54 1013.1
20220118121422 49 182 2.0 7.0 0.00 0.00 0.00 52 1013.0
20220118120357 49 183 2.0 7.0 0.00 0.00 0.00 51 1012.9
20220118115418 49 134 1.0 6.0 0.00 0.00 0.00 49 1013.0
20220118114428 49 172 1.0 6.0 0.00 0.00 0.00 48 1012.9
20220118113414 49 161 1.0 6.0 0.00 0.00 0.00 46 1012.7
20220118112346 50 171 2.0 5.0 0.00 0.00 0.00 44 1012.8
20220118111347 50 159 2.0 7.0 0.00 0.00 0.00 44 1012.8
20220118110336 50 143 1.0 9.0 0.00 0.00 0.00 43 1012.7
20220118105355 50 168 2.0 9.0 0.00 0.00 0.00 43 1013.1
20220118104353 50 121 2.0 9.0 0.00 0.00 0.00 43 1013.2
20220118103339 49 136 2.0 8.0 0.00 0.00 0.00 43 1013.1
20220118102310 49 129 2.0 8.0 0.00 0.00 0.00 44 1013.2
20220118101324 49 126 2.0 8.0 0.00 0.00 0.00 44 1013.3
20220118100258 49 110 1.0 6.0 0.00 0.00 0.00 44 1013.4
20220118095306 49 189 1.0 6.0 0.00 0.00 0.00 45 1013.6
20220118094308 48 112 1.0 4.0 0.00 0.00 0.00 45 1013.7
20220118093231 49 153 1.0 4.0 0.00 0.00 0.00 45 1013.9
20220118092234 49 173 1.0 4.0 0.00 0.00 0.00 45 1014.0
20220118091246 49 132 0.0 3.0 0.00 0.00 0.00 45 1014.0
20220118090221 48 141 1.0 5.0 0.00 0.00 0.00 46 1014.0
20220118085200 48 124 1.0 5.0 0.00 0.00 0.00 47 1014.0
20220118084132 47 123 0.0 3.0 0.00 0.00 0.00 49 1014.2
20220118083133 46 147 0.0 3.0 0.00 0.00 0.00 50 1014.3
20220118082139 47 126 0.0 0.0 0.00 0.00 0.00 50 1014.4
20220118081138 47 158 0.0 2.0 0.00 0.00 0.00 49 1014.5
20220118080107 48 127 0.0 3.0 0.00 0.00 0.00 49 1014.5
20220118075034 48 133 0.0 3.0 0.00 0.00 0.00 48 1014.7
20220118074049 48 123 0.0 5.0 0.00 0.00 0.00 48 1014.6
20220118073048 48 157 1.0 5.0 0.00 0.00 0.00 48 1014.7
20220118072015 49 190 0.0 5.0 0.00 0.00 0.00 48 1014.8
20220118071005 49 166 0.0 2.0 0.00 0.00 0.00 47 1014.9
20220118065928 49 143 0.0 3.0 0.00 0.00 0.00 47 1015.0
20220118064912 49 113 0.0 4.0 0.00 0.00 0.00 47 1015.1
20220118063919 50 142 0.0 4.0 0.00 0.00 0.00 46 1015.4
20220118062846 50 123 0.0 3.0 0.00 0.00 0.00 46 1015.3
20220118061825 50 116 1.0 4.0 0.00 0.00 0.00 45 1015.5
20220118060813 49 134 1.0 5.0 0.00 0.00 0.00 47 1015.5
20220118055752 48 209 0.0 5.0 0.00 0.00 0.00 50 1015.6
20220118054759 46 142 0.0 3.0 0.00 0.00 0.00 53 1015.8
20220118053732 45 144 0.0 1.0 0.00 0.00 0.00 57 1015.7
20220118052712 45 115 0.0 0.0 0.00 0.00 0.00 59 1015.8
20220118051638 46 115 0.0 1.0 0.00 0.00 0.00 53 1015.9
20220118050618 47 115 0.0 0.0 0.00 0.00 0.00 52 1016.0
20220118045634 47 115 0.0 0.0 0.00 0.00 0.00 51 1016.1
20220118044647 48 115 0.0 0.0 0.00 0.00 0.00 50 1016.1
20220118043609 48 120 0.0 2.0 0.00 0.00 0.00 50 1016.1
20220118042625 47 118 0.0 1.0 0.00 0.00 0.00 50 1016.2
20220118041643 47 143 0.0 0.0 0.00 0.00 0.00 51 1016.3
20220118040615 46 125 0.0 0.0 0.00 0.00 0.00 53 1016.4
20220118035554 45 128 0.0 0.0 0.00 0.00 0.00 55 1016.4
20220118034522 45 125 0.0 1.0 0.00 0.00 0.00 55 1016.4
20220118033527 45 125 0.0 0.0 0.00 0.00 0.00 55 1016.4
20220118032533 44 125 0.0 0.0 0.00 0.00 0.00 55 1016.5
20220118031534 44 125 0.0 0.0 0.00 0.00 0.00 57 1016.6
20220118030541 43 125 0.0 0.0 0.00 0.00 0.00 57 1016.7
20220118025535 43 125 0.0 0.0 0.00 0.00 0.00 58 1016.7
20220118024538 43 125 0.0 0.0 0.00 0.00 0.00 58 1016.7
20220118023521 44 125 0.0 0.0 0.00 0.00 0.00 56 1016.7
20220118022542 44 125 0.0 0.0 0.00 0.00 0.00 56 1016.8
20220118021549 45 125 0.0 0.0 0.00 0.00 0.00 55 1016.8
20220118020549 45 125 0.0 0.0 0.00 0.00 0.00 54 1016.8
20220118015535 45 125 0.0 0.0 0.00 0.00 0.00 53 1016.9
20220118014538 46 125 0.0 0.0 0.00 0.00 0.00 54 1016.8
20220118013545 46 125 0.0 0.0 0.00 0.00 0.00 51 1016.7
20220118012533 47 125 0.0 0.0 0.00 0.00 0.00 51 1016.7
20220118011506 47 117 0.0 0.0 0.00 0.00 0.00 49 1016.6
20220118010457 48 117 0.0 0.0 0.00 0.00 0.00 47 1016.6
20220118005458 50 117 0.0 0.0 0.00 0.00 0.00 44 1016.6
20220118004440 51 117 0.0 0.0 0.00 0.00 0.00 43 1016.4
20220118003440 52 117 0.0 0.0 0.00 0.00 0.00 41 1016.4
20220118002425 54 117 0.0 0.0 0.00 0.00 0.00 39 1016.3
20220118001432 55 117 0.0 0.0 0.00 0.00 0.00 37 1016.2
20220118000401 57 117 0.0 0.0 0.00 0.00 0.00 34 1016.2
20220117235416 59 117 0.0 0.0 0.00 0.00 0.00 32 1016.2
20220117234437 60 117 0.0 5.0 0.00 0.00 0.00 30 1016.2
20220117233449 61 144 1.0 6.0 0.00 0.00 0.00 29 1016.3
20220117232510 62 128 1.0 9.0 0.00 0.00 0.00 28 1016.3
20220117231506 63 153 1.0 9.0 0.00 0.00 0.00 28 1016.2
20220117230511 63 165 1.0 6.0 0.00 0.00 0.00 27 1016.6
20220117225529 64 178 2.0 6.0 0.00 0.00 0.00 27 1016.8
20220117224548 64 151 1.0 5.0 0.00 0.00 0.00 27 1016.8
20220117223600 64 126 2.0 6.0 0.00 0.00 0.00 27 1016.8
20220117222607 64 130 2.0 6.0 0.00 0.00 0.00 27 1017.0
20220117221548 64 212 1.0 8.0 0.00 0.00 0.00 28 1017.1
20220117220529 64 167 2.0 8.0 0.00 0.00 0.00 28 1017.3
20220117215536 64 205 1.0 6.0 0.00 0.00 0.00 29 1017.4
20220117214546 64 219 2.0 6.0 0.00 0.00 0.00 28 1017.6
20220117213538 63 232 3.0 8.0 0.00 0.00 0.00 30 1017.9
20220117212559 63 246 2.0 8.0 0.00 0.00 0.00 29 1017.8
20220117211542 63 167 3.0 8.0 0.00 0.00 0.00 29 1017.9
20220117210542 63 122 2.0 9.0 0.00 0.00 0.00 29 1018.1
20220117205527 63 117 2.0 9.0 0.00 0.00 0.00 29 1018.2
20220117204549 63 176 2.0 9.0 0.00 0.00 0.00 30 1018.3
20220117203606 62 217 3.0 9.0 0.00 0.00 0.00 30 1018.4
20220117202547 62 175 3.0 8.0 0.00 0.00 0.00 30 1018.5
20220117201518 62 252 3.0 8.0 0.00 0.00 0.00 31 1018.7
20220117200522 61 186 4.0 8.0 0.00 0.00 0.00 31 1018.9
20220117195529 62 168 3.0 8.0 0.00 0.00 0.00 31 1019.1
20220117194520 61 215 2.0 6.0 0.00 0.00 0.00 32 1019.5
20220117193505 61 159 2.0 8.0 0.00 0.00 0.00 32 1019.4
20220117192440 61 113 2.0 10.0 0.00 0.00 0.00 32 1019.8
20220117191416 60 0 2.0 10.0 0.00 0.00 0.00 33 1020.7
20220117190345 60 223 2.0 6.0 0.00 0.00 0.00 32 1020.8
20220117185322 59 238 1.0 6.0 0.00 0.00 0.00 35 1020.3
20220117184246 59 218 1.0 5.0 0.00 0.00 0.00 35 1020.7
20220117183214 58 138 2.0 7.0 0.00 0.00 0.00 35 1021.1
20220117182148 57 0 2.0 8.0 0.00 0.00 0.00 36 1021.4
20220117181122 57 0 2.0 8.0 0.00 0.00 0.00 36 1021.7
20220117180128 57 0 2.0 7.0 0.00 0.00 0.00 37 1022.1
20220117175051 57 0 1.0 7.0 0.00 0.00 0.00 38 1022.2
20220117174053 56 0 2.0 7.0 0.00 0.00 0.00 39 1022.3
20220117173039 56 0 2.0 7.0 0.00 0.00 0.00 39 1022.6
20220117172044 55 0 2.0 7.0 0.00 0.00 0.00 38 1022.7
20220117171011 55 0 2.0 7.0 0.00 0.00 0.00 40 1022.6
20220117165934 54 0 1.0 6.0 0.00 0.00 0.00 40 1022.7
20220117164931 53 0 1.0 3.0 0.00 0.00 0.00 44 1022.8
20220117163941 51 0 1.0 3.0 0.00 0.00 0.00 45 1022.9
20220117162905 50 208 0.0 2.0 0.00 0.00 0.00 50 1022.9
20220117161859 48 209 0.0 2.0 0.00 0.00 0.00 50 1023.0
20220117160826 48 202 0.0 2.0 0.00 0.00 0.00 51 1023.0
20220117155759 47 0 0.0 2.0 0.00 0.00 0.00 52 1023.0
20220117154814 46 0 0.0 0.0 0.00 0.00 0.00 53 1022.9
20220117153811 44 0 0.0 0.0 0.00 0.00 0.00 57 1022.7
20220117152808 42 224 0.0 1.0 0.00 0.00 0.00 63 1022.6
20220117151820 39 0 0.0 0.0 0.00 0.00 0.00 67 1022.6
20220117150823 37 0 0.0 1.0 0.00 0.00 0.00 68 1022.5
20220117145820 35 0 0.0 1.0 0.00 0.00 0.00 73 1022.3
20220117144746 33 0 0.0 0.0 0.00 0.00 0.00 76 1022.2
20220117143752 32 0 0.0 0.0 0.00 0.00 0.00 77 1022.2
20220117142814 31 0 0.0 0.0 0.00 0.00 0.00 79 1022.1
20220117141823 28 0 0.0 0.0 0.00 0.00 0.00 84 1022.1
20220117140838 27 218 0.0 0.0 0.00 0.00 0.00 84 1021.8
20220117135816 27 218 0.0 0.0 0.00 0.00 0.00 84 1021.8
20220117134811 27 218 0.0 0.0 0.00 0.00 0.00 83 1021.7
20220117133807 27 218 0.0 0.0 0.00 0.00 0.00 82 1021.4
20220117132826 27 218 0.0 0.0 0.00 0.00 0.00 82 1021.3